W2DEN Weather Reports


Display with metric or nautical units.
time (UTC)temp
F
wind
direction
speed
MPH
gust
MPH
rain 1hr
in
rain 24hr
in
rain mn
in
humidity
%
barometer
mb
20260903193416 94 68 2.0 6.0 0.00 0.00 0.00 57 1015.9
20260903192416 94 90 2.0 3.0 0.00 0.00 0.00 57 1015.9
20260903191416 94 225 2.0 3.0 0.00 0.00 0.00 56 1015.8
20260903190416 93 68 3.0 5.0 0.00 0.00 0.00 58 1015.8
20260903185416 94 23 2.0 3.0 0.00 0.00 0.00 56 1015.8
20260903184417 94 158 1.0 1.0 0.00 0.00 0.00 58 1015.9
20260903183416 93 135 4.0 7.0 0.00 0.00 0.00 57 1016.1
20260903182416 93 68 1.0 4.0 0.00 0.00 0.00 60 1016.3
20260903181416 92 0 2.0 5.0 0.00 0.00 0.00 62 1016.4
20260903180417 93 0 1.0 3.0 0.00 0.00 0.00 61 1016.5
20260903175416 92 315 3.0 5.0 0.00 0.00 0.00 60 1016.4
20260903174416 92 135 2.0 5.0 0.00 0.00 0.00 62 1016.6
20260903173416 92 0.0 2.0 0.00 0.00 0.00 61 1016.7
20260903172416 91 338 2.0 4.0 0.00 0.00 0.00 63 1016.8
20260903171416 92 90 2.0 3.0 0.00 0.00 0.00 62 1017.0
20260903170416 90 180 1.0 2.0 0.00 0.00 0.00 65 1017.0
20260903165415 91 23 1.0 2.0 0.00 0.00 0.00 65 1017.1
20260903164417 91 0 3.0 6.0 0.00 0.00 0.00 63 1017.3
20260903163417 90 113 3.0 5.0 0.00 0.00 0.00 61 1017.4
20260903162416 90 203 1.0 2.0 0.00 0.00 0.00 64 1017.4
20260903161416 90 135 1.0 3.0 0.00 0.00 0.00 66 1017.5
20260903160416 89 135 2.0 4.0 0.00 0.00 0.00 68 1017.6
20260903155416 88 225 2.0 4.0 0.00 0.00 0.00 68 1017.6
20260903154416 88 0.0 1.0 0.00 0.00 0.00 72 1017.6
20260903153416 87 315 2.0 4.0 0.00 0.00 0.00 72 1017.5
20260903152416 88 23 1.0 2.0 0.00 0.00 0.00 70 1017.6
20260903151416 87 45 2.0 4.0 0.00 0.00 0.00 75 1017.5
20260903150415 86 0.0 1.0 0.00 0.00 0.00 80 1017.4
20260903145416 85 68 2.0 3.0 0.00 0.00 0.00 80 1017.4
20260903144416 85 23 1.0 3.0 0.00 0.00 0.00 82 1017.3
20260903143436 85 180 1.0 1.0 0.00 0.00 0.00 81 1017.4
20260903142416 85 23 2.0 3.0 0.00 0.00 0.00 82 1017.3
20260903141418 84 23 1.0 2.0 0.00 0.00 0.00 85 1017.3
20260903140418 83 68 1.0 2.0 0.00 0.00 0.00 87 1017.4
20260903135438 82 0.0 1.0 0.00 0.00 0.00 89 1017.5
20260903134438 81 0.0 0.0 0.00 0.00 0.00 90 1017.6
20260903133439 80 0.0 1.0 0.00 0.00 0.00 95 1017.5
20260903132417 78 0.0 1.0 0.00 0.00 0.00 96 1017.6
20260903131418 77 45 1.0 2.0 0.00 0.00 0.00 96 1017.6
20260903130418 77 0.0 1.0 0.00 0.00 0.00 96 1017.6
20260903125418 76 0.0 1.0 0.00 0.00 0.00 96 1017.6
20260903124418 76 0.0 0.0 0.00 0.00 0.00 96 1017.6
20260903123417 75 0.0 0.0 0.00 0.00 0.00 96 1017.6
20260903122456 75 0.0 0.0 0.00 0.00 0.00 96 1017.6
20260903122018 75 0.0 0.0 0.00 0.00 0.00 96 1017.6
20260903121038 75 0.0 0.0 0.00 0.00 0.00 96 1017.5
20260903120038 74 0.0 0.0 0.00 0.00 0.00 96 1017.5
20260903115039 74 0.0 0.0 0.00 0.00 0.00 96 1017.3
20260903114038 74 0.0 0.0 0.00 0.00 0.00 96 1017.2
20260903113019 74 0.0 0.0 0.00 0.00 0.00 96 1017.0
20260903112017 73 0.0 0.0 0.00 0.00 0.00 96 1016.9
20260903111018 73 0.0 0.0 0.00 0.00 0.00 96 1016.6
20260903110019 72 0.0 0.0 0.00 0.00 0.00 96 1016.6
20260903105037 72 0.0 0.0 0.00 0.00 0.00 96 1016.7
20260903104017 72 0.0 0.0 0.00 0.00 0.00 96 1016.6
20260903103018 71 0.0 0.0 0.00 0.00 0.00 96 1016.5
20260903102019 71 0.0 0.0 0.00 0.00 0.00 96 1016.5
20260903101019 71 0.0 0.0 0.00 0.00 0.00 96 1016.4
20260903100018 71 0.0 0.0 0.00 0.00 0.00 96 1016.5
20260903095039 71 0.0 0.0 0.00 0.00 0.00 96 1016.4
20260903094017 71 0.0 0.0 0.00 0.00 0.00 96 1016.4
20260903093017 71 0.0 0.0 0.00 0.00 0.00 96 1016.5
20260903092017 71 0.0 0.0 0.00 0.00 0.00 96 1016.3
20260903091017 72 0.0 0.0 0.00 0.00 0.00 96 1016.3
20260903090018 72 0.0 0.0 0.00 0.00 0.00 96 1016.3
20260903085017 72 0.0 0.0 0.00 0.00 0.00 96 1016.1
20260903084018 71 0.0 0.0 0.00 0.00 0.00 95 1016.0
20260903083018 72 0.0 0.0 0.00 0.00 0.00 95 1016.0
20260903082018 72 0.0 0.0 0.00 0.00 0.00 95 1016.0
20260903081017 72 0.0 0.0 0.00 0.00 0.00 95 1016.0
20260903080038 72 0.0 0.0 0.00 0.00 0.00 95 1015.9
20260903075037 72 0.0 0.0 0.00 0.00 0.00 95 1015.8
20260903074017 72 0.0 0.0 0.00 0.00 0.00 95 1015.8
20260903073017 72 0.0 0.0 0.00 0.00 0.00 95 1015.9
20260903072017 72 0.0 0.0 0.00 0.00 0.00 95 1015.9
20260903071018 73 0.0 0.0 0.00 0.00 0.00 95 1015.9
20260903070017 73 0.0 0.0 0.00 0.00 0.00 95 1015.9
20260903065018 73 0.0 0.0 0.00 0.00 0.00 95 1016.0
20260903064017 73 0.0 0.0 0.00 0.00 0.00 95 1015.9
20260903063017 73 0.0 0.0 0.00 0.00 0.00 95 1015.9
20260903062019 73 0.0 0.0 0.00 0.00 0.00 95 1016.1
20260903061017 73 0.0 0.0 0.00 0.00 0.00 95 1016.4
20260903060017 73 0.0 0.0 0.00 0.00 0.00 95 1016.4
20260903055017 74 0.0 0.0 0.00 0.00 0.00 95 1016.7
20260903054017 74 0.0 0.0 0.00 0.00 0.00 94 1016.6
20260903053038 74 0.0 0.0 0.00 0.00 0.00 94 1016.6
20260903052017 74 0.0 0.0 0.00 0.00 0.00 94 1016.6
20260903051017 74 0.0 0.0 0.00 0.00 0.00 94 1016.6
20260903050018 74 0.0 0.0 0.00 0.00 0.00 94 1016.7
20260903045058 74 0.0 0.0 0.00 0.00 0.00 94 1016.8
20260903044019 74 0.0 0.0 0.00 0.00 0.00 94 1016.9
20260903043017 74 0.0 0.0 0.00 0.00 0.00 94 1016.9
20260903042017 75 0.0 0.0 0.00 0.00 0.00 93 1017.0
20260903041018 75 0.0 0.0 0.00 0.00 0.00 93 1017.0
20260903040017 75 0.0 0.0 0.00 0.00 0.00 93 1017.2
20260903035037 75 0.0 0.0 0.00 0.00 0.00 93 1017.3
20260903034016 75 0.0 0.0 0.00 0.00 0.00 93 1017.1
20260903033017 75 0.0 0.0 0.00 0.00 0.00 92 1017.2
20260903032016 75 0.0 0.0 0.00 0.00 0.00 92 1017.2
20260903031037 75 0.0 0.0 0.00 0.00 0.00 92 1017.2
20260903030016 75 0.0 0.0 0.00 0.00 0.00 91 1017.3
20260903025036 75 0.0 0.0 0.00 0.00 0.00 90 1017.3
20260903024016 76 0.0 0.0 0.00 0.00 0.00 90 1017.4
20260903023017 76 0.0 0.0 0.00 0.00 0.00 89 1017.4
20260903022016 76 0.0 0.0 0.00 0.00 0.00 89 1017.3
20260903021016 76 0.0 0.0 0.00 0.00 0.00 88 1017.4
20260903020016 77 0.0 0.0 0.00 0.00 0.00 87 1017.2
20260903015017 77 0.0 0.0 0.00 0.00 0.00 86 1017.3
20260903014017 77 0.0 0.0 0.00 0.00 0.00 85 1017.2
20260903013016 78 0.0 0.0 0.00 0.00 0.00 85 1017.1
20260903012016 78 0.0 0.0 0.00 0.00 0.00 84 1016.6
20260903011016 78 0.0 0.0 0.00 0.00 0.00 84 1016.5
20260903010017 79 0.0 0.0 0.00 0.00 0.00 83 1016.6
20260903005016 79 0.0 0.0 0.00 0.00 0.00 81 1016.6
20260903004016 80 0.0 0.0 0.00 0.00 0.00 80 1016.5
20260903003016 81 0.0 0.0 0.00 0.00 0.00 78 1016.5
20260903002017 81 0.0 0.0 0.00 0.00 0.00 77 1016.3
20260903001016 82 0.0 0.0 0.00 0.00 0.00 76 1016.2
20260903000016 83 0.0 0.0 0.00 0.00 0.00 75 1016.1
20260902235016 84 0.0 0.0 0.00 0.00 0.00 72 1016.1
20260902234016 85 0.0 0.0 0.00 0.00 0.00 70 1016.0
20260902233037 86 0.0 0.0 0.00 0.00 0.00 68 1016.0
20260902232016 87 0.0 0.0 0.00 0.00 0.00 65 1016.1
20260902231037 88 0.0 0.0 0.00 0.00 0.00 63 1016.1
20260902230016 88 0.0 0.0 0.00 0.00 0.00 61 1016.2
20260902225017 89 0.0 1.0 0.00 0.00 0.00 60 1016.1
20260902224016 89 90 1.0 3.0 0.00 0.00 0.00 58 1016.1
20260902223016 90 68 2.0 4.0 0.00 0.00 0.00 57 1016.1
20260902222036 90 90 2.0 4.0 0.00 0.00 0.00 57 1016.2
20260902221015 91 90 2.0 3.0 0.00 0.00 0.00 56 1016.2
20260902220016 92 0.0 1.0 0.00 0.00 0.00 56 1016.2
20260902215037 92 23 1.0 2.0 0.00 0.00 0.00 56 1016.2
20260902214018 92 0.0 1.0 0.00 0.00 0.00 55 1016.1
20260902213018 93 135 1.0 2.0 0.00 0.00 0.00 51 1016.2
20260902212018 94 135 1.0 1.0 0.00 0.00 0.00 52 1016.2
20260902211018 95 68 1.0 2.0 0.00 0.00 0.00 50 1016.2
20260902210018 95 68 1.0 1.0 0.00 0.00 0.00 49 1016.1
20260902205018 95 90 1.0 2.0 0.00 0.00 0.00 49 1016.2
20260902204018 95 248 4.0 6.0 0.00 0.00 0.00 46 1016.3
20260902203018 95 158 1.0 1.0 0.00 0.00 0.00 47 1016.3
20260902202018 95 0 2.0 3.0 0.00 0.00 0.00 50 1016.4
20260902201017 95 158 1.0 2.0 0.00 0.00 0.00 48 1016.6
20260902200058 95 0 1.0 2.0 0.00 0.00 0.00 49 1016.6
20260902195017 95 338 2.0 4.0 0.00 0.00 0.00 49 1016.7
20260902194018 95 0 2.0 2.0 0.00 0.00 0.00 49 1016.9